Home > Weather > Mesquite > Past weeks

Flag for USA Past Weather in Mesquite, Texas, USA — Yesterday and Last 2 Weeks

Now
93 °F

Sunny.


Feels Like: 99 °F
Forecast: 80 / 99 °F
Wind: 7 mph from South

Location: Mesquite Metro Airport

Current Time: Jul 24, 2016 at 1:41:48 PM

Latest Report: Jul 24, 2016 at 12:50 PM


Visibility: 10 mi

Pressure: 29.97 "Hg

Humidity: 47%

Dew Point: 70 °F

Location of MesquiteLocation

Past Weather in Mesquite — Graph

°F

Mesquite Temperature Yesterday

Maximum temperature yesterday: 97 °F (at 1:50 PM)
Minimum temperature yesterday: 75 °F (at 6:50 AM)
Average temperature yesterday: 85 °F

High & Low Weather Summary for the Past Weeks

 TemperatureHumidityPressure
High99 °F (Jul 22, 3:50 PM)100% (Jul 9, 6:50 PM)30.22 "Hg (Jul 9, 6:50 PM)
Low70 °F (Jul 19, 10:50 AM)33% (Jul 22, 3:50 PM)29.82 "Hg (Jul 11, 6:50 PM)
Average82 °F72%30.00 "Hg
* Reported Jul 9 12:50 PM — Jul 24 11:50 AM, Mesquite, Weather by CustomWeather, © 2016

Note: Actual official high and low records may vary slightly from our data, if they occured in-between our weather recording intervals... More about our weather records

Advertising

Mesquite Weather History for the Previous 24 Hours

Scroll right to see more
 ConditionsComfort  
Time TempWeatherWind HumidityBarometerVisibility
11:50 AM
Sun, Jul 24
91 °FSunny.5 mph49%29.99 "Hg10 mi
10:50 AM90 °FSunny.8 mph55%29.99 "Hg10 mi
9:50 AM86 °FSunny.6 mph66%29.98 "Hg10 mi
8:50 AM84 °FSunny.7 mph70%29.98 "Hg10 mi
7:50 AM79 °FSunny.6 mph89%29.96 "Hg10 mi
6:50 AM75 °FClear.5 mph100%29.94 "Hg10 mi
6:15 AM76 °FClear.5 mph95%29.94 "Hg10 mi
5:55 AM76 °FClear.5 mph94%29.94 "Hg10 mi
5:35 AM77 °FClear.3 mph92%29.93 "Hg10 mi
5:15 AM78 °FClear.5 mph91%29.93 "Hg10 mi
4:55 AM77 °FClear.6 mph91%29.93 "Hg10 mi
4:15 AM78 °FClear.6 mph90%29.93 "Hg10 mi
3:55 AM77 °FClear.5 mph91%29.92 "Hg10 mi
3:15 AM77 °FClear.3 mph89%29.92 "Hg10 mi
2:55 AM78 °FClear.3 mph85%29.92 "Hg10 mi
2:15 AM78 °FClear.3 mph85%29.91 "Hg10 mi
1:55 AM79 °FClear.3 mph83%29.92 "Hg10 mi
1:35 AM80 °FClear.5 mph81%29.92 "Hg10 mi
1:15 AM81 °FClear.3 mph79%29.92 "Hg10 mi
12:55 AM82 °FClear.5 mph72%29.93 "Hg10 mi
12:15 AM83 °FClear.5 mph66%29.93 "Hg10 mi
11:55 PM
Sat, Jul 23
84 °FClear.5 mph64%29.93 "Hg10 mi
11:35 PM84 °FClear.7 mph65%29.93 "Hg10 mi
11:15 PM84 °FClear.5 mph65%29.92 "Hg10 mi
10:55 PM85 °FClear.5 mph63%29.92 "Hg10 mi
10:35 PM86 °FClear.6 mph62%29.91 "Hg10 mi
10:15 PM87 °FClear.6 mph59%29.92 "Hg10 mi
9:55 PM87 °FClear.7 mph60%29.91 "Hg10 mi
9:35 PM87 °FClear.6 mph58%29.90 "Hg10 mi
8:55 PM88 °FSunny.5 mph55%29.91 "Hg10 mi
8:35 PM90 °FSunny.5 mph54%29.89 "Hg10 mi
8:15 PM91 °FSunny.6 mph52%29.89 "Hg10 mi
7:50 PM93 °FSunny.5 mph49%29.88 "Hg10 mi
6:50 PM95 °FSunny.7 mph44%29.87 "Hg10 mi
5:50 PM97 °FSunny.8 mph42%29.88 "Hg10 mi
4:50 PM97 °FSunny.9 mph42%29.90 "Hg10 mi
3:50 PM97 °FSunny.8 mph39%29.92 "Hg10 mi
2:50 PM97 °FSunny.5 mph39%29.95 "Hg10 mi
1:50 PM97 °FSunny.3 mph42%29.96 "Hg10 mi
Weather by CustomWeather, © 2016

See weather overviewHow to use our weather pages